Hourly Data Report for October 24, 2013

All times are specified in Local Standard Time (LST). Add 1 hour to adjust for Daylight Saving Time where and when it is observed.

MONCTON INTL A
NEW BRUNSWICK

46°06'44.000" N
64°40'43.000" W
70.70 m
8103201
71705
YQM

Download Data

Hourly Data (October 2013)
Hourly Data Report for October 24, 2013
Temp Definition
°C
Dew Point Temp Definition
°C
Rel Hum Definition
%
Wind Dir Definition
10's deg

Wind Spd Definition
km/h
Visibility Definition
km
Stn Press Definition
kPa
Hmdx Definition


Wind Chill Definition


Weather Definition


TIME
00:00 Legend Double Dagger 4.7 0.8 76 30 6 24.1 99.14     LegendNANA
01:00 Legend Double Dagger 4.2 2.2 87 21 9 24.1 99.12     LegendNANA
02:00 Legend Double Dagger 4.1 2.1 87 24 6 24.1 99.09     Cloudy
03:00 Legend Double Dagger 3.5 1.4 86 27 6 24.1 98.98     LegendNANA
04:00 Legend Double Dagger 3.5 1.7 88 23 8 22.5 99.00     LegendNANA
05:00 Legend Double Dagger 3.3 0.5 82 26 13 24.1 99.00     Mainly Clear
06:00 Legend Double Dagger 2.8 -0.1 81 25 12 24.1 99.04     LegendNANA
07:00 Legend Double Dagger 2.6 -0.5 80 25 10 24.1 99.08     LegendNANA
08:00 Legend Double Dagger 2.6 -0.2 82 25 16 24.1 99.16     Mostly Cloudy
09:00 Legend Double Dagger 3.9 0.4 78 25 17 24.1 99.18     LegendNANA
10:00 Legend Double Dagger 6.1 0.9 69 25 21 24.1 99.18     LegendNANA
11:00 Legend Double Dagger 7.1 -1.8 53 27 35 24.1 99.19     Mainly Clear
12:00 Legend Double Dagger 8.1 -3.4 44 25 32 24.1 99.14     LegendNANA
13:00 Legend Double Dagger 8.1 -3.7 43 24 29 24.1 99.11     LegendNANA
14:00 Legend Double Dagger 8.7 -3.8 41 24 41 24.1 99.05     Mostly Cloudy
15:00 Legend Double Dagger 7.3 -4.5 43 25 35 24.1 99.07     LegendNANA
16:00 Legend Double Dagger 7.7 -4.4 42 23 36 24.1 99.09     LegendNANA
17:00 Legend Double Dagger 5.6 -5.4 45 25 32 24.1 99.20     Mostly Cloudy
18:00 Legend Double Dagger 4.6 -5.8 47 24 26 24.1 99.28     LegendNANA
19:00 Legend Double Dagger 3.7 -4.8 54 22 15 24.1 99.31     LegendNANA
20:00 Legend Double Dagger 3.7 -4.0 57 21 14 24.1 99.32     Cloudy
21:00 Legend Double Dagger 4.5 -3.5 56 22 17 24.1 99.32     LegendNANA
22:00 Legend Double Dagger 4.6 -3.0 58 24 21 24.1 99.33     LegendNANA
23:00 Legend Double Dagger 5.0 -2.6 58 23 27 24.1 99.35     Cloudy

Notes on Data Quality.

Legend

  • E = Estimated
  • M = Missing
  • NA = Not Available
  • ‡ = Partner data that is not subject to review by the National Climate Archives
Date modified: